Temp
-1 -2 -2 -1 -2 -2 -2 -2 -2 -1 -2 -2 -3 -3 -4 -4 -5 -5 -6 -6 -7 -7 -6 -6 -6 -5 -5 -5 -5 -4 -4 -3 -3 -3 -3 -3 -2 -2 -2 -2 -1 -2 -3 -4
-2 -2 -2 -2 -2 -2 -2 -2 -2 -1 -2 -2 -3 -4 -4 -5 -5 -5 -5 -5 -5 -5 -5 -5 -5 -5 -5 -5 -6 -5 -4 -4 -4 -4 -3 -4 -4 -4 -3 -2 -2 -3 -3 -4
-2 -2 -3 -3 -0 -1 -2 -2 -1 -1 -2 -2 -3 -4 -4 -5 -5 -5 -5 -5 -5 -5 -5 -5 -5 -5 -6 -5 -5 -5 -5 -5 -5 -4 -5 -4 -4 -4 -4 -4 -4 -4 -3 -2
-4 -3 -8 0 -0 0 -1 -2 -2 -1 -2 -2 -3 -4 -5 -5 -5 -5 -5 -5 -5 -5 -5 -5 -5 -6 -6 -6 -6 -6 -6 -5 -6 -6 -6 -6 -6 -5 -6 -5 -5 -5 -5 -4
-3 -4 -2 -1 -0 0 -0 -1 -2 -2 -2 -3 -3 -4 -5 -5 -5 -5 -4 -5 -5 -5 -5 -5 -5 -6 -6 -6 -6 -6 -6 -6 -6 -6 -6 -7 -7 -7 -6 -6 -6 -6 -5 -5
-5 -5 -7 -1 -0 -1 -2 -2 -2 -2 -2 -3 -3 -4 -5 -4 -5 -5 -4 -4 -5 -5 -5 -5 -6 -6 -6 -6 -6 -6 -7 -7 -7 -7 -7 -7 -7 -7 -7 -7 -6 -6 -6 -6
-6 -5 -2 -1 -2 -1 -2 -0 -1 -2 -2 -3 -3 -4 -4 -4 -5 -5 -4 -4 -5 -5 -5 -5 -5 -6 -6 -6 -6 -6 -6 -7 -7 -8 -7 -7 -7 -7 -7 -7 -6 -6 -6 -6
-6 -6 -5 -0 -2 -1 -0 -0 -1 -2 -3 -3 -3 -3 -4 -4 -5 -5 -5 -5 -5 -5 -5 -5 -6 -6 -6 -6 -6 -6 -7 -7 -7 -7 -7 -7 -7 -7 -7 -7 -7 -6 -6 -6
-3 -2 -1 -2 -2 -1 -1 -2 -2 -2 -2 -3 -3 -3 -4 -4 -5 -5 -5 -5 -5 -5 -6 -6 -6 -6 -6 -6 -6 -7 -7 -7 -7 -8 -8 -8 -8 -8 -8 -8 -7 -7 -6 -6
-3 -1 -1 -2 -2 -2 -2 -2 -3 -3 -3 -3 -3 -4 -4 -4 -5 -5 -5 -5 -6 -6 -6 -6 -6 -6 -6 -6 -7 -7 -7 -7 -8 -8 -8 -9 -9 -9 -9 -8 -8 -8 -7 -7
-3 -2 -2 -2 -3 -3 -3 -3 -3 -4 -4 -4 -4 -4 -4 -5 -5 -5 -6 -6 -6 -6 -6 -6 -6 -6 -6 -7 -7 -7 -7 -8 -8 -8 -9 -9 -9 -9 -9 -9 -9 -8 -8 -8
-1 -1 -2 -2 -3 -3 -4 -4 -4 -4 -4 -5 -4 -4 -5 -5 -6 -6 -6 -6 -6 -6 -6 -6 -6 -6 -7 -7 -7 -7 -7 -8 -8 -9 -9 -9 -9 -9 -9 -9 -9 -9 -9 -9
-2 -2 -2 -3 -3 -4 -4 -5 -5 -5 -5 -5 -5 -5 -5 -5 -6 -6 -6 -6 -6 -6 -6 -6 -6 -7 -7 -7 -7 -7 -8 -8 -9 -9 -9 -9 -10 -10 -9 -9 -9 -9 -9 -9
-4 -3 -3 -2 -3 -3 -4 -4 -5 -5 -6 -6 -6 -5 -5 -6 -6 -7 -7 -7 -7 -7 -7 -7 -7 -7 -7 -7 -7 -8 -8 -8 -9 -10 -10 -10 -10 -10 -10 -10 -9 -9 -9 -9
-4 -3 -3 -3 -4 -4 -4 -4 -5 -6 -6 -6 -6 -5 -6 -7 -7 -7 -7 -7 -7 -7 -7 -7 -7 -7 -7 -8 -8 -8 -8 -9 -9 -10 -10 -10 -10 -10 -10 -10 -10 -10 -10 -10
-3 -3 -3 -3 -4 -3 -3 -4 -5 -5 -6 -6 -6 -6 -7 -7 -7 -7 -7 -7 -7 -7 -7 -7 -7 -7 -8 -8 -8 -8 -9 -9 -10 -10 -10 -10 -10 -10 -10 -10 -10 -10 -10 -10
-4 -4 -3 -3 -3 -3 -3 -4 -4 -5 -5 -5 -6 -6 -7 -7 -8 -8 -8 -8 -8 -7 -7 -7 -8 -8 -8 -8 -8 -8 -9 -9 -10 -10 -10 -10 -10 -10 -11 -11 -11 -11 -11 -11
-4 -4 -4 -4 -4 -4 -4 -4 -5 -5 -6 -6 -5 -6 -7 -8 -8 -8 -8 -8 -8 -8 -7 -8 -8 -8 -8 -8 -8 -9 -9 -9 -10 -10 -11 -10 -11 -11 -11 -11 -11 -11 -11 -11
-4 -4 -4 -4 -5 -5 -5 -6 -5 -6 -6 -5 -6 -8 -8 -8 -8 -8 -8 -8 -8 -8 -8 -8 -8 -8 -8 -9 -9 -9 -9 -9 -10 -11 -11 -11 -11 -11 -11 -11 -11 -11 -11 -11
-5 -4 -4 -5 -5 -5 -6 -6 -6 -7 -7 -7 -7 -8 -9 -9 -9 -8 -9 -8 -8 -8 -8 -8 -8 -8 -9 -9 -9 -9 -10 -10 -11 -11 -11 -11 -11 -11 -11 -11 -11 -11 -12 -12
-5 -5 -5 -5 -5 -5 -6 -6 -6 -6 -7 -8 -9 -9 -9 -9 -9 -9 -9 -8 -8 -8 -8 -9 -9 -9 -9 -9 -9 -10 -10 -10 -11 -11 -11 -11 -11 -11 -11 -11 -11 -11 -12 -12
-5 -6 -6 -6 -6 -6 -6 -6 -7 -8 -9 -9 -9 -9 -9 -9 -9 -9 -9 -8 -8 -9 -9 -9 -9 -9 -9 -9 -9 -10 -10 -10 -11 -11 -11 -11 -11 -11 -11 -12 -11 -12 -12 -12
-6 -6 -6 -7 -7 -7 -7 -7 -8 -9 -9 -9 -9 -9 -9 -9 -9 -9 -9 -9 -9 -9 -9 -9 -9 -9 -9 -10 -10 -10 -10 -10 -11 -11 -11 -11 -11 -11 -11 -12 -12 -12 -12 -12
-5 -6 -6 -7 -8 -8 -8 -8 -9 -9 -9 -9 -9 -9 -9 -9 -9 -9 -9 -9 -9 -9 -9 -9 -9 -9 -10 -10 -10 -10 -11 -11 -11 -11 -11 -11 -12 -12 -12 -12 -12 -12 -12 -12
-6 -7 -7 -8 -8 -9 -9 -10 -9 -10 -10 -10 -10 -9 -9 -9 -9 -9 -9 -9 -9 -9 -9 -10 -10 -10 -10 -10 -10 -11 -11 -11 -11 -12 -12 -12 -12 -12 -12 -12 -12 -12 -12 -12
-7 -8 -8 -8 -8 -9 -9 -10 -10 -10 -10 -10 -10 -9 -9 -9 -9 -9 -10 -10 -10 -10 -10 -10 -10 -10 -10 -10 -10 -11 -11 -11 -11 -12 -12 -12 -12 -12 -12 -12 -12 -12 -12 -12
-9 -8 -8 -9 -9 -10 -10 -10 -10 -10 -10 -10 -10 -9 -9 -9 -10 -10 -10 -10 -10 -10 -10 -10 -10 -10 -10 -10 -11 -11 -11 -11 -12 -12 -12 -12 -12 -12 -12 -12 -12 -12 -12 -12
Height
3102 3103 3104 3105 3108 3109 3109 3112 3113 3113 3113 3113 3114 3115 3115 3114 3112 3110 3108 3104 3101 3097 3094 3090 3085 3080 3078 3074 3070 3066 3063 3061 3059 3056 3052 3049 3047 3046 3045 3043 3040 3035 3032 3029
3098 3100 3101 3101 3102 3103 3105 3107 3108 3110 3111 3111 3110 3111 3111 3110 3108 3107 3105 3102 3099 3095 3091 3088 3083 3079 3073 3069 3066 3062 3060 3058 3054 3051 3048 3044 3040 3039 3035 3033 3032 3031 3027 3024
3097 3098 3099 3098 3091 3093 3097 3101 3104 3106 3107 3107 3107 3107 3107 3105 3104 3103 3102 3099 3096 3092 3089 3085 3082 3077 3072 3067 3063 3059 3056 3052 3048 3045 3042 3039 3036 3032 3029 3025 3022 3019 3018 3017
3094 3096 3099 3088 3087 3088 3091 3096 3100 3102 3102 3102 3102 3102 3101 3101 3101 3101 3099 3095 3092 3089 3086 3082 3077 3073 3070 3066 3062 3057 3053 3050 3046 3042 3038 3034 3031 3027 3023 3020 3015 3011 3009 3006
3091 3091 3086 3083 3083 3085 3085 3090 3094 3098 3098 3097 3098 3098 3097 3097 3098 3097 3095 3092 3089 3087 3084 3079 3075 3071 3067 3063 3060 3056 3051 3047 3043 3039 3035 3031 3026 3022 3018 3014 3010 3007 3003 2999
3087 3087 3084 3079 3079 3081 3085 3086 3089 3091 3092 3093 3093 3094 3092 3092 3094 3093 3092 3091 3088 3084 3081 3078 3074 3070 3065 3061 3056 3052 3048 3044 3040 3036 3032 3027 3022 3018 3013 3008 3003 3000 2997 2994
3081 3081 3075 3075 3077 3079 3083 3083 3080 3085 3087 3087 3088 3090 3090 3090 3090 3090 3090 3088 3084 3081 3077 3074 3071 3067 3062 3058 3054 3049 3044 3039 3035 3031 3027 3023 3018 3012 3007 3003 2998 2993 2990 2986
3078 3079 3071 3069 3071 3073 3074 3072 3077 3080 3082 3083 3084 3085 3085 3085 3087 3087 3086 3084 3082 3079 3074 3070 3067 3063 3058 3053 3049 3045 3040 3035 3030 3024 3019 3016 3011 3007 3001 2996 2991 2988 2983 2979
3061 3059 3062 3064 3066 3067 3069 3071 3073 3076 3078 3080 3081 3081 3082 3083 3083 3083 3082 3081 3078 3075 3072 3068 3063 3058 3054 3049 3045 3040 3035 3030 3025 3020 3014 3008 3003 2998 2994 2989 2983 2978 2973 2970
3055 3056 3058 3060 3062 3064 3066 3068 3070 3072 3074 3075 3076 3076 3076 3077 3078 3078 3078 3077 3075 3072 3069 3065 3060 3054 3049 3044 3039 3034 3029 3024 3019 3014 3009 3003 2998 2992 2987 2981 2975 2970 2965 2960
3046 3050 3053 3055 3057 3059 3062 3063 3064 3065 3068 3068 3069 3070 3071 3071 3073 3074 3073 3072 3071 3068 3064 3060 3055 3050 3044 3039 3034 3029 3024 3018 3013 3007 3001 2996 2991 2985 2980 2975 2968 2961 2956 2951
3038 3046 3049 3050 3054 3055 3056 3058 3059 3060 3061 3062 3064 3065 3066 3067 3069 3069 3069 3067 3066 3063 3060 3056 3050 3045 3040 3034 3028 3022 3017 3011 3005 3000 2994 2988 2982 2977 2974 2967 2962 2957 2951 2944
3037 3041 3044 3047 3048 3051 3052 3052 3054 3055 3057 3057 3059 3059 3060 3062 3064 3064 3064 3063 3061 3058 3055 3050 3045 3039 3034 3029 3023 3017 3010 3004 2998 2993 2987 2981 2975 2968 2961 2959 2954 2948 2942 2935
3032 3035 3037 3039 3041 3044 3047 3049 3050 3051 3051 3051 3052 3054 3056 3057 3058 3058 3058 3057 3055 3052 3048 3044 3039 3033 3028 3023 3017 3011 3005 2998 2991 2985 2980 2974 2968 2961 2955 2947 2941 2937 2934 2927
3027 3028 3032 3035 3036 3038 3041 3043 3044 3044 3044 3045 3046 3048 3051 3052 3052 3053 3052 3051 3050 3047 3043 3039 3034 3028 3023 3017 3010 3004 2997 2990 2984 2979 2973 2967 2961 2955 2948 2941 2934 2927 2922 2918
3021 3022 3025 3027 3029 3031 3034 3038 3037 3037 3039 3040 3042 3043 3045 3047 3047 3047 3046 3046 3044 3041 3037 3033 3028 3022 3016 3010 3004 2998 2991 2985 2978 2972 2967 2961 2955 2948 2941 2934 2927 2921 2914 2906
3012 3014 3018 3020 3022 3023 3026 3028 3031 3031 3033 3035 3038 3039 3040 3041 3042 3042 3041 3040 3038 3035 3031 3027 3022 3016 3010 3004 2998 2992 2985 2978 2972 2967 2961 2955 2949 2942 2935 2927 2920 2914 2907 2900
3004 3007 3010 3013 3016 3016 3019 3021 3023 3025 3027 3028 3031 3033 3035 3036 3036 3036 3036 3034 3032 3029 3024 3020 3015 3010 3005 2999 2993 2986 2979 2972 2966 2960 2955 2950 2943 2936 2929 2922 2915 2907 2901 2894
2997 2999 3001 3005 3008 3010 3012 3014 3015 3017 3020 3022 3025 3028 3029 3030 3031 3030 3029 3028 3026 3023 3019 3014 3009 3005 2999 2993 2987 2980 2973 2966 2960 2955 2949 2944 2937 2931 2923 2916 2909 2902 2895 2888
2989 2991 2994 2998 3001 3002 3005 3007 3010 3013 3015 3017 3020 3022 3024 3025 3025 3024 3023 3021 3018 3015 3011 3007 3003 2998 2993 2987 2981 2974 2968 2961 2955 2949 2944 2938 2931 2925 2918 2911 2904 2897 2889 2882
2977 2982 2986 2990 2993 2996 2999 3002 3005 3009 3012 3014 3015 3017 3018 3019 3019 3018 3017 3015 3011 3007 3004 3000 2996 2992 2987 2981 2976 2969 2962 2956 2950 2944 2938 2932 2926 2920 2913 2906 2899 2892 2884 2878
2966 2972 2977 2982 2986 2991 2994 2997 3000 3003 3006 3008 3010 3011 3012 3012 3012 3011 3009 3007 3004 3001 2997 2993 2990 2986 2981 2976 2969 2963 2957 2951 2944 2939 2933 2927 2921 2915 2908 2901 2895 2888 2881 2874
2960 2967 2971 2975 2980 2985 2990 2992 2995 2998 3000 3003 3004 3006 3007 3007 3007 3005 3002 2998 2996 2994 2991 2987 2983 2979 2975 2969 2964 2958 2952 2946 2940 2934 2929 2923 2917 2910 2904 2898 2891 2884 2878 2872
2957 2962 2965 2970 2975 2980 2984 2987 2990 2993 2995 2998 2999 3000 3001 3001 3000 2998 2995 2992 2989 2987 2984 2981 2977 2973 2968 2962 2957 2951 2946 2941 2935 2929 2924 2919 2913 2907 2901 2895 2888 2882 2876 2870
2953 2957 2962 2965 2970 2975 2979 2982 2986 2989 2991 2993 2994 2995 2995 2994 2993 2991 2988 2986 2983 2981 2978 2974 2970 2966 2961 2956 2950 2945 2940 2934 2929 2924 2920 2915 2910 2904 2898 2892 2886 2880 2875 2869
2950 2954 2957 2962 2967 2971 2975 2978 2982 2984 2986 2987 2989 2989 2988 2987 2986 2983 2981 2978 2975 2973 2970 2966 2963 2959 2954 2948 2943 2937 2933 2928 2924 2920 2916 2911 2906 2901 2896 2890 2885 2880 2874 2869
2946 2949 2953 2957 2962 2966 2970 2974 2977 2979 2981 2982 2982 2982 2981 2979 2978 2976 2974 2971 2968 2966 2963 2959 2955 2951 2946 2941 2936 2931 2926 2922 2919 2915 2912 2908 2904 2899 2894 2889 2884 2880 2875 2871
Wind_Speed
12 9 10 13 11 13 16 7 6 3 5 15 13 8 6 9 10 13 10 11 13 16 18 21 24 26 24 22 21 21 20 18 17 18 21 23 23 28 33 37 38 39 35 28
15 16 12 14 18 21 20 17 16 10 7 12 11 4 10 10 11 12 14 14 15 17 20 21 22 24 26 26 24 24 23 22 21 20 20 21 23 27 27 30 37 35 34 37
4 3 7 15 23 25 23 21 16 16 14 16 10 12 12 10 13 12 18 15 17 18 20 21 20 21 22 24 24 27 28 26 24 25 23 23 24 24 25 27 29 29 32 32
8 9 1 6 9 7 24 19 19 14 15 14 15 14 13 13 14 13 16 17 19 19 21 23 24 25 24 23 22 23 24 25 25 24 25 26 25 25 24 25 28 30 29 32
7 15 12 12 13 13 19 23 21 22 19 15 16 14 14 16 10 14 13 17 18 19 21 23 24 25 26 26 25 24 24 23 24 25 25 25 26 27 27 26 26 27 30 31
12 5 7 5 7 7 14 20 24 24 24 22 21 15 19 16 13 13 12 14 16 18 20 22 23 25 27 28 29 29 27 26 25 24 25 27 28 28 28 30 30 29 28 28
20 10 11 14 10 13 20 6 20 27 26 27 25 19 18 18 16 12 13 14 17 20 23 25 25 27 29 29 29 30 30 29 29 28 27 28 29 30 31 30 29 30 31 30
21 12 15 21 21 22 12 16 11 26 26 25 23 19 19 18 15 13 13 14 16 20 23 27 28 30 32 32 32 31 30 30 30 31 32 31 32 33 34 34 33 32 31 30
25 15 8 22 25 22 17 13 14 19 22 21 21 18 18 17 16 14 14 15 17 20 23 26 30 32 31 32 32 33 32 32 31 31 32 33 32 32 33 33 35 35 35 33
21 22 17 16 24 26 18 17 17 20 21 19 16 17 16 16 16 15 14 14 17 20 23 27 30 30 32 33 33 34 34 33 33 33 33 32 32 32 32 33 34 34 35 36
27 18 16 21 24 26 23 19 20 19 17 17 17 17 15 16 15 15 15 16 18 21 24 29 31 31 31 32 33 34 34 35 34 34 34 33 33 33 33 31 33 35 35 36
31 23 20 19 22 22 25 23 21 21 20 19 18 18 17 17 15 15 16 17 20 22 24 29 32 30 31 32 34 36 36 36 35 34 34 35 35 35 32 33 32 31 32 35
24 19 20 25 21 20 24 26 26 26 25 23 20 19 20 17 15 17 17 19 21 23 26 31 33 31 32 33 34 36 37 37 35 33 34 35 36 37 39 33 33 32 32 34
25 23 21 20 25 23 19 28 29 27 26 24 23 21 15 17 17 18 19 21 23 25 28 34 33 33 33 34 35 36 36 36 35 34 34 36 37 38 39 40 39 35 32 35
35 33 26 23 24 27 24 23 28 31 32 31 28 23 16 18 18 18 20 22 23 25 29 35 33 33 34 34 36 37 38 37 35 33 34 35 37 37 39 39 38 37 37 36
26 29 27 26 30 27 25 23 28 34 33 33 30 26 21 20 19 19 21 22 23 26 30 35 33 33 34 35 37 38 39 37 35 33 34 35 36 37 39 38 37 36 38 39
32 31 27 28 30 31 29 24 25 32 31 31 26 24 23 19 19 19 20 22 24 28 33 35 32 32 33 35 37 38 39 39 35 32 34 35 36 37 39 38 36 36 38 38
33 32 34 28 28 32 29 27 26 28 27 27 23 19 17 19 19 20 21 22 25 30 35 33 31 31 32 35 37 38 39 39 35 32 34 34 35 37 38 36 35 38 38 36
29 29 35 31 28 29 28 27 27 27 25 23 16 14 17 18 19 20 22 25 28 30 32 30 30 30 32 34 37 39 39 39 36 32 34 34 35 37 37 35 35 37 37 36
32 31 30 29 28 29 29 30 27 27 24 22 18 19 18 19 20 22 23 26 30 32 29 29 29 31 32 34 37 39 39 39 36 33 33 34 35 37 36 34 35 37 36 35
38 38 33 33 30 29 30 28 25 24 18 19 21 20 20 20 21 23 25 28 31 28 27 27 29 30 32 35 37 38 39 39 36 33 33 34 35 36 36 34 35 36 35 33
39 38 33 35 32 29 28 26 23 20 19 20 20 19 19 20 22 24 27 29 27 25 26 27 29 30 32 35 37 37 38 39 36 32 32 33 35 36 35 33 35 34 32 31
35 32 30 31 30 28 25 22 20 20 20 19 18 18 18 20 20 24 27 27 25 25 25 27 29 31 33 35 37 38 38 38 36 31 31 32 34 35 34 33 33 32 30 28
28 26 29 28 26 26 23 21 21 21 19 18 17 17 16 18 23 25 25 24 24 25 26 28 30 32 35 37 39 39 38 37 34 29 29 31 33 33 31 32 30 28 27 25
25 26 24 26 27 26 25 24 22 20 19 17 15 15 18 21 23 24 23 23 24 25 26 29 31 34 36 39 40 39 37 35 32 27 28 29 31 30 29 30 27 26 24 22
23 23 24 26 24 24 24 23 21 19 17 15 14 16 19 22 23 22 23 24 25 26 28 30 33 36 38 39 39 37 34 31 29 25 26 27 29 28 27 26 24 22 20 19
23 24 25 26 26 25 22 20 19 16 15 15 16 19 21 23 23 23 23 24 26 27 29 32 35 36 36 36 35 33 31 28 26 23 23 25 26 25 24 22 19 18 17 16
Wind_Direction
187 208 214 200 216 208 224 208 213 148 214 197 207 249 224 269 280 282 288 298 306 317 330 335 338 344 353 353 346 339 336 336 323 314 304 297 294 274 281 270 270 276 278 276
224 228 226 237 223 215 224 236 249 239 234 213 220 182 238 269 271 290 332 337 340 341 342 343 346 354 350 349 351 343 344 334 326 319 311 306 299 294 287 281 286 288 289 288
185 199 226 256 246 230 222 214 223 221 232 216 213 220 244 259 258 292 329 340 346 344 344 349 360 360 357 350 345 339 345 343 331 321 316 309 305 302 291 285 286 287 287 285
178 184 285 245 251 243 220 212 209 211 205 225 228 249 256 253 265 294 325 339 346 349 349 357 360 358 359 356 349 341 339 340 337 331 325 321 317 311 307 294 287 285 283 284
196 210 270 235 243 230 206 209 211 208 231 241 248 258 251 263 277 305 326 341 343 345 353 357 359 357 354 352 351 348 343 338 334 330 327 325 324 321 317 313 305 295 288 282
197 204 219 212 240 194 186 221 205 221 220 233 244 226 249 264 279 304 317 333 336 340 347 353 353 352 351 348 345 344 339 335 331 326 322 321 320 320 319 318 314 309 302 295
218 229 254 186 212 203 196 226 208 213 223 229 240 250 246 258 279 284 299 327 340 341 341 343 345 347 345 344 340 337 334 330 326 320 315 311 311 315 315 315 315 311 307 303
214 223 255 200 205 214 233 228 210 206 219 229 243 251 254 263 262 272 298 323 334 337 339 337 338 339 338 337 337 334 331 328 325 321 318 313 310 309 310 313 314 312 309 306
210 227 192 186 212 232 238 235 211 212 225 239 250 255 251 251 252 270 293 311 326 333 336 337 335 334 334 334 333 332 330 329 326 323 321 320 320 316 313 312 311 312 312 309
228 232 227 205 212 231 237 239 229 229 238 248 249 253 258 252 255 271 288 305 320 328 332 335 334 333 332 331 331 330 328 326 324 322 319 318 318 318 318 317 315 314 314 312
231 224 206 203 213 228 234 240 247 247 244 255 258 261 259 254 259 272 286 302 315 325 330 333 334 331 330 330 329 327 326 325 323 321 320 320 319 319 319 320 319 317 316 313
237 239 227 224 221 232 241 245 246 252 260 259 264 263 259 255 259 270 285 299 312 321 324 328 331 329 329 330 328 328 327 325 323 321 321 322 322 320 320 319 318 316 315 313
244 247 235 233 229 226 235 242 252 258 264 262 262 260 265 257 257 269 285 299 308 315 319 325 330 329 330 329 328 328 327 325 323 322 323 323 324 324 323 323 321 320 320 317
235 238 231 222 228 237 228 231 241 255 264 266 264 264 265 249 257 271 286 298 310 317 324 330 330 328 328 328 329 330 328 326 324 324 326 324 325 325 325 325 324 324 324 323
226 243 246 240 230 231 238 239 237 243 252 258 265 274 268 253 260 274 288 300 310 314 324 330 327 326 327 328 330 332 331 329 325 324 325 325 325 325 325 325 325 325 326 327
232 228 230 230 235 238 240 233 236 236 243 251 261 266 259 252 261 276 289 301 306 314 321 327 324 324 326 329 331 332 331 330 326 324 325 326 325 326 326 327 327 328 329 329
231 226 231 231 232 243 248 250 235 236 242 251 255 249 248 253 262 276 289 299 306 314 319 322 321 324 326 328 330 331 331 331 327 324 325 328 327 327 329 329 328 330 330 330
234 237 239 241 239 239 244 244 238 237 238 247 250 252 247 250 264 278 290 295 302 310 316 318 319 323 325 328 330 330 332 332 329 326 327 328 329 329 330 330 329 331 332 330
244 235 229 232 232 236 239 239 239 242 246 255 255 245 244 256 269 281 289 294 301 309 313 314 318 321 325 328 330 331 333 332 331 327 328 329 330 331 332 331 331 333 332 331
237 232 226 227 229 230 229 232 237 244 250 253 248 245 251 261 271 282 288 297 305 312 312 314 319 322 326 328 329 331 332 331 330 327 329 330 331 333 333 332 334 335 334 334
220 226 226 223 224 226 227 233 240 246 245 234 237 243 252 264 277 283 291 300 308 309 311 314 318 322 326 327 329 331 331 330 329 327 330 331 331 333 334 334 336 336 335 334
219 221 223 224 226 225 226 231 236 239 235 234 236 246 258 271 280 287 295 303 305 307 311 315 318 321 324 326 328 330 330 329 328 327 329 330 332 334 335 335 337 337 337 337
216 217 224 224 224 224 223 229 234 230 229 230 240 253 264 274 282 292 299 303 304 307 310 312 315 320 323 324 326 328 328 328 327 325 328 330 332 335 335 336 338 339 340 340
219 219 221 220 217 216 221 222 223 221 223 234 249 260 267 280 290 296 298 299 302 306 309 311 315 319 321 323 324 324 324 324 326 325 328 330 332 336 335 336 340 341 342 343
213 217 215 214 206 207 210 213 215 220 232 242 252 264 280 290 293 294 294 297 300 304 307 310 314 317 319 320 319 320 321 321 324 325 328 329 332 336 335 337 341 342 345 347
209 206 202 198 203 206 208 213 217 230 240 245 257 274 289 296 296 294 295 297 301 305 307 310 313 316 318 319 319 320 319 318 321 323 326 328 333 336 336 339 343 346 352 354
197 197 199 201 203 204 210 217 224 234 240 257 272 285 295 296 293 292 293 297 300 304 306 308 311 315 317 317 319 321 320 316 319 321 324 326 333 336 337 341 348 355 4 6